Location: Unspecified
(0.0000°N, 0.0000°E)
Time: 20:14:46
(UTC+00:00)

Vanguard 2 - All Passes

Search period start: 16 September 2019 00:00
Search period end: 26 September 2019 00:00
Orbit: 554 x 2937 km, 32.9° (Epoch: 16 September)

Date Brightness Start Highest point End Pass type
(mag) Time Alt. Az. Time Alt. Az. Time Alt. Az.
16 Sep - 01:30:14 10° WSW 01:47:11 66° NW 01:58:29 10° NE visible
16 Sep - 03:49:20 10° WNW 03:57:53 20° NW 04:04:19 10° N visible
16 Sep - 12:38:03 10° NW 12:42:26 81° NE 12:48:58 10° ESE daylight
16 Sep - 14:47:27 10° WSW 14:52:15 22° SSW 14:59:00 10° SSE daylight
16 Sep - 17:02:49 10° SSW 17:05:29 11° S 17:08:26 10° S daylight
16 Sep - 19:15:09 10° SSW 19:22:02 14° SSE 19:29:45 10° SE visible
16 Sep - 21:24:19 10° SSW 21:38:34 31° SSE 21:52:47 10° E visible
16 Sep - 23:35:00 10° SW 23:53:01 69° SE 00:07:07 10° ENE visible
17 Sep - 01:49:13 10° WSW 02:05:14 51° NW 02:16:07 10° NE visible
17 Sep - 04:11:09 10° WNW 04:16:15 13° NW 04:20:31 10° N visible
17 Sep - 10:50:13 10° N 10:52:24 14° NE 10:54:45 10° ENE daylight
17 Sep - 12:56:05 10° WNW 13:00:28 56° SSW 13:07:01 10° SE daylight
17 Sep - 15:07:09 10° SW 15:11:03 15° SSW 15:16:00 10° SSE daylight
17 Sep - 19:33:04 10° SSW 19:41:43 17° SSE 19:51:28 10° SE visible
17 Sep - 21:41:59 10° SSW 21:57:28 39° SSE 22:12:33 10° E visible
17 Sep - 23:53:07 10° SW 00:11:22 85° SE 00:25:23 10° ENE visible
18 Sep - 02:08:40 10° W 02:23:18 38° NW 02:33:33 10° NNE visible
18 Sep - 11:06:54 10° NNW 11:10:19 27° NE 11:14:17 10° E daylight
18 Sep - 13:14:31 10° W 13:18:43 32° SSW 13:24:42 10° SE daylight
18 Sep - 15:28:17 10° SSW 15:30:02 11° S 15:31:56 10° S daylight
18 Sep - 19:50:43 10° SSW 20:01:09 21° SSE 20:12:57 10° ESE visible
18 Sep - 21:59:42 10° SW 22:16:10 49° SSE 22:31:52 10° ENE visible
19 Sep - 00:11:28 10° WSW 00:29:36 78° NW 00:43:24 10° NE visible
19 Sep - 02:28:42 10° W 02:41:29 29° NW 02:50:49 10° NNE visible
19 Sep - 11:24:19 10° NW 11:28:11 55° NE 11:32:58 10° ESE daylight
19 Sep - 13:33:29 10° WSW 13:37:09 20° SSW 13:41:59 10° SSE daylight
19 Sep - 18:03:04 10° S 18:04:27 10° SSE 18:05:53 10° SSE daylight
19 Sep - 20:08:15 10° SSW 20:20:17 26° SSE 20:33:54 10° ESE visible
19 Sep - 22:17:29 10° SW 22:34:40 61° SE 22:50:44 10° ENE visible
20 Sep - 00:30:09 10° WSW 00:47:48 62° NW 01:01:13 10° NE visible
20 Sep - 02:49:27 10° WNW 02:59:52 21° NW 03:07:53 10° N visible
20 Sep - 11:42:11 10° WNW 11:46:08 72° SSW 11:51:08 10° SE daylight
20 Sep - 13:53:23 10° SW 13:55:45 13° SSW 13:58:31 10° S daylight
20 Sep - 18:19:14 10° S 18:24:03 12° SSE 18:29:26 10° SE visible
20 Sep - 20:25:46 10° SSW 20:39:09 33° SSE 20:54:14 10° E visible
20 Sep - 22:35:26 10° SW 22:53:04 76° SE 23:09:16 10° ENE visible
21 Sep - 00:49:13 10° WSW 01:06:00 48° NW 01:18:51 10° NE visible
21 Sep - 03:11:06 10° WNW 03:18:31 15° NNW 03:24:36 10° N visible
21 Sep - 09:53:05 10° NNW 09:56:01 18° NNE 09:58:51 10° ENE daylight
21 Sep - 12:00:29 10° W 12:04:12 36° SSW 12:08:52 10° SE daylight
21 Sep - 18:36:12 10° S 18:43:24 16° SSE 18:51:53 10° ESE visible
21 Sep - 20:43:20 10° SSW 20:57:47 42° SE 21:13:59 10° E visible
21 Sep - 22:53:34 10° SW 23:11:22 88° NW 23:27:29 10° NE visible
22 Sep - 01:08:45 10° W 01:24:17 38° NW 01:36:21 10° NNE visible
22 Sep - 03:34:20 10° NW 03:37:26 11° NNW 03:40:17 10° NNW visible
22 Sep - 10:10:14 10° NW 10:14:03 36° NE 10:17:49 10° ESE daylight
22 Sep - 12:19:21 10° WSW 12:22:26 20° SSW 12:26:07 10° SSE daylight
22 Sep - 18:53:20 10° SSW 19:02:29 20° SSE 19:13:36 10° ESE visible
22 Sep - 21:00:58 10° SW 21:16:14 53° SE 21:33:15 10° ENE visible
22 Sep - 23:11:58 10° WSW 23:29:39 72° NW 23:45:29 10° NE visible
23 Sep - 01:28:52 10° W 01:42:45 29° NNW 01:53:44 10° NNE visible
23 Sep - 10:27:55 10° NW 10:32:01 79° NE 10:36:08 10° ESE daylight
23 Sep - 12:39:31 10° SW 12:40:50 11° SSW 12:42:14 10° S daylight
23 Sep - 19:10:36 10° SSW 19:21:17 27° SSE 19:34:37 10° E visible
23 Sep - 21:18:45 10° SW 21:34:35 67° SE 21:52:05 10° ENE visible
23 Sep - 23:30:41 10° WSW 23:47:57 58° NW 00:03:18 10° NE visible
24 Sep - 01:49:40 10° WNW 02:01:26 22° NNW 02:10:59 10° NNE visible
24 Sep - 08:38:28 10° NNW 08:41:30 16° NNE 08:44:07 10° ENE daylight
24 Sep - 10:46:04 10° WNW 10:49:58 47° SW 10:54:00 10° SE daylight
24 Sep - 17:25:41 10° SSE 17:26:20 10° SSE 17:27:02 10° SSE daylight
24 Sep - 19:27:57 10° SSW 19:39:50 35° SE 19:54:56 10° E visible
24 Sep - 21:36:41 10° SW 21:52:52 82° SE 22:10:34 10° ENE visible
24 Sep - 23:49:48 10° WSW 00:06:21 46° NW 00:20:58 10° NE visible
25 Sep - 02:11:11 10° WNW 02:20:24 17° NNW 02:28:08 10° N visible
25 Sep - 08:55:27 10° NNW 08:59:46 28° NNE 09:03:18 10° E daylight
25 Sep - 11:04:45 10° W 11:08:00 23° SSW 11:11:22 10° SSE daylight
25 Sep - 17:39:56 10° S 17:45:23 14° SSE 17:51:51 10° ESE daylight
25 Sep - 19:45:25 10° SSW 19:58:12 45° SE 20:14:39 10° ENE visible
25 Sep - 21:54:51 10° WSW 22:11:10 81° NW 22:28:47 10° NE visible
